Preview of NWS' New Version of Forecast
This preview is not operational and should not be used for support decisions.
Latest weather observations around

Coffeyville, Coffeyville Municipal Airport (KCFV)

Using English Units (Switch to International System of Units)
Date/ Time (CDT) Wind (mph) Vis. (mi) Weather Sky Cond. Temp (°F) Rel. Humidity Wind Chill (°F) Heat Index (°F) Pressure Precip. (in)
Air Dwpt 6 hour Altimeter (inHg) Sea level (inHg) 1 hr 3 hr 6 hr
Max Min
Jun 25 19:52 SSE 8 10 Clear CLR 83 72     70%   88 29.91 29.89      
Jun 25 18:52 S 11 10 Mostly Clear FEW034 85 72     65%   91 29.92 29.9      
Jun 25 17:52 S 13 10 Clear CLR 85 72     65%   91 29.93 29.91      
Jun 25 16:52 S 15 10 Clear CLR 86 71     61%   92 29.94 29.92      
Jun 25 15:52 S 13 10 Clear CLR 85 71     63%   90 29.96 29.93      
Jun 25 14:52 S 11 10 Clear CLR 84 71     65%   89 29.97 29.95      
Jun 25 13:52 S 9 10 Clear CLR 85 71     63%   90 29.98 29.96      
Jun 25 12:52 S 10 10 Clear CLR 83 70     65%   87 30 29.98      
Jun 25 11:52 S 10 10 Clear CLR 82 70     67%   86 29.99 29.97      
Jun 25 10:52 S 9 10 Clear CLR 78 69     74%   79 29.99 29.97      
Jun 25 09:52 SSW 11 10 Mostly Clear FEW015 78 70     76%   79 29.98 29.96      
Jun 25 08:52 S 8 10 Clear CLR 74 69     85%   75 29.97 29.96      
Jun 25 07:52 S 6 10 Clear CLR 70 67     90%     29.96 29.94      
Jun 25 06:52 S 5 10 Clear CLR 65 63     93%     29.95 29.93      
Jun 25 05:52 Calm 10 Clear CLR 63 61     93%     29.92 29.91      
Jun 25 04:52 S 6 10 Clear CLR 63 61     93%     29.91 29.89      
Jun 25 03:52 S 5 10 Clear CLR 65 61     87%     29.9 29.88      
Jun 25 02:52 S 6 10 Clear CLR 65 61     87%     29.9 29.88      
Jun 25 01:52 S 6 10 Clear CLR 65 61     87%     29.9 29.88      
Jun 25 00:52 Calm 10 Clear CLR 65 61     87%     29.91 29.89      
Jun 24 23:52 SSE 6 10 Clear CLR 67 62     84%     29.93 29.91      
Jun 24 22:52 Calm 10 Clear CLR 69 63     81%     29.92 29.9      
Jun 24 21:52 SSE 6 10 Clear CLR 70 63     78%     29.89 29.87      
Jun 24 20:52 SE 3 10 Clear CLR 72 64     76%   72 29.87 29.85      
Jun 24 19:52 SSE 5 10 Clear   78 61     56%   78 29.87 29.85      
Jun 24 18:52 S 7 10 Clear CLR 80 58     47%   80 29.88 29.85      
Jun 24 17:52 SW 3 10 Clear CLR 81 56     42%   81 29.88 29.86      
Jun 24 16:52 WSW 7 10 Clear   81 58     45%   81 29.89 29.87      
Jun 24 15:52 WSW 6 10 Clear CLR 80 57     45%   80 29.89 29.88      
Jun 24 14:52 NW 6 10 Clear CLR 80 57     45%   80 29.9 29.88      
Jun 24 13:52   10 Clear CLR 78 58     50%   78 29.92 29.9      
Jun 24 12:52 WNW 6 10 Clear CLR 77 58     52%   77 29.92 29.91      
Jun 24 11:52 WNW 8 10 Clear CLR 75 58     55%   75 29.93 29.91      
Jun 24 10:52 WNW 6 10 Clear CLR 72 58     61%   72 29.91 29.89      
Jun 24 09:52 NNW 10 10 Clear CLR 71 59     66%   71 29.88 29.87      
Jun 24 08:52 NW 11 10 Partly Cloudy SCT014 69 62     78%     29.87 29.85      
Jun 24 08:47 NW 11 10 Partly Cloudy SCT014 70 63     78%     29.87        
Jun 24 08:38 NW 11 10 Mostly Cloudy BKN014 BKN041 68 62     81%     29.86        
Jun 24 08:16 NNW 14 10 Partly Cloudy FEW012 SCT046 69 63     81%     29.86        
Jun 24 07:52 NNW 14 10 Mostly Cloudy BKN013 BKN036 70 65     84%     29.84 29.82      
Jun 24 07:49 NNW 13 10 Mostly Cloudy BKN013 BKN037 70 66     88%     29.84        
Jun 24 06:56 Calm 10 Mostly Cloudy SCT008 SCT012 BKN044 68 66     93%     29.82        
Jun 24 06:52 Calm 10 Mostly Cloudy BKN008 BKN012 BKN044 68 66     93%     29.81 29.8      
Jun 24 05:52 W 5 10 Cloudy BKN007 OVC010 67 65     93%     29.8 29.78      
Jun 24 05:05 W 3 10 Mostly Cloudy BKN010 67 65     93%     29.78        
Jun 24 04:52 W 6 10 Mostly Clear FEW012 66 64     93%     29.78 29.76      
Jun 24 03:52 S 6 10 Clear CLR 66 64     93%     29.75 29.73      
Jun 24 02:52 SSW 10 10 Clear CLR 68 65     90%     29.76 29.75      
Jun 24 01:52 SSW 5 10 Clear CLR 69 67     93%     29.79 29.78      
Jun 24 00:52 SSE 8 10 Clear CLR 69 67     93%     29.79 29.77      
Jun 23 23:52 S 6 10 Clear CLR 69 67     93%     29.81 29.8      
Jun 23 22:52 SSE 7 10 Clear CLR 70 68     93%     29.8 29.79      
Jun 23 21:52 SE 5 10 Cloudy OVC085 70 67     90%     29.78 29.77      
Jun 23 20:52 Calm 10 Mostly Clear FEW080 70 68     93%     29.76 29.74      
Jun 23 19:52 Calm 10 Clear CLR 71 68     90%   72 29.75 29.74      
Jun 23 19:33 NNE 3 10 Mostly Clear FEW029 72 68     87%   73 29.76        
Jun 23 18:52 N 6 10 Mostly Cloudy FEW014 BKN029 72 67     84%   73 29.75 29.73      
Jun 23 17:52 Calm 10 Cloudy BKN019 OVC027 74 68     82%   75 29.73 29.71      
Jun 23 16:52 SW 7 10 Cloudy OVC021 73 67     81%   74 29.75 29.73      
Jun 23 16:05 SSW 11 10 Mostly Cloudy BKN018 75 67     76%   76 29.77        
Jun 23 15:52 S 10 10 Partly Cloudy FEW014 SCT019 75 68     79%   76 29.77 29.75      
Jun 23 15:16 SW 9 10 Partly Cloudy SCT014 73 67     81%   74 29.78        
Jun 23 14:52 SW 11 10 Mostly Cloudy BKN014 71 67     87%   72 29.78 29.76      
Jun 23 14:06 W 9 10 Mostly Cloudy BKN010 69 66     90%     29.79        
Jun 23 13:52 SW 8 10 Mostly Clear FEW010 69 66     90%     29.78 29.77      
Jun 23 12:52 SSW 6 10 Clear CLR 66 64     93%     29.76 29.75     1
Jun 23 11:52 SSE 6 10 Clear CLR 66 64     93%     29.8 29.78 0    
Jun 23 10:52 ENE 14 10 Light Rain FEW039 SCT100 BKN120 66 63     90%     29.77   0    
Jun 23 09:52 E 10 9 Light Rain BKN100 BKN120 66 64     93%     29.81 29.79 0 1  
Jun 23 09:03 NW 7 10 Light Rain SCT019 BKN110 66 64     93%     29.88   0    
Jun 23 08:52 N 3 9 Rain BKN021 OVC100 66 64     93%     29.86 29.85 0    
Jun 23 08:42 NNE 9 10 Light Rain BKN019 BKN025 OVC095 66 64     93%     29.86   0    
Jun 23 08:14 ENE 7 10 Light Rain FEW055 BKN100 OVC110 65 64     97%     29.82   0    
Jun 23 08:01 E 8 6 Rain and Fog/Mist FEW005 BKN048 OVC120 65 64     97%     29.8   0    
Jun 23 07:52 E 8 4 Thunderstorms and Rain and Fog/Mist SCT005 OVC039 65 64     97%     29.8 29.78 1    
Jun 23 07:49 ENE 9 4 Thunderstorms and Rain and Fog/Mist SCT005 OVC032 64 64     100%     29.81   1    
Jun 23 07:44 NE 11 3 Thunderstorms and Heavy Rain and Fog/Mist BKN005 OVC015 66 65     96%     29.81   1    
Jun 23 07:42 NE 11 2 Thunderstorms and Heavy Rain and Fog/Mist SCT006 OVC017 67 65     93%     29.81   1    
Jun 23 07:32 Calm 0.75 Thunderstorms and Heavy Rain and Fog/Mist FEW006 BKN015 OVC060 67 66     97%     29.82   1    
Jun 23 07:28 NW 8 0.5 Thunderstorms and Heavy Rain and Fog BKN010 OVC065 67 65     93%     29.81   1    
Jun 23 07:21   0.75 Thunderstorms and Heavy Rain and Fog/Mist SCT007 BKN015 OVC100 67 65     93%     29.86   1    
Jun 23 07:18   1.75 Heavy Rain and Fog/Mist SCT007 BKN023 OVC110 68 66     93%     29.85   0    
Jun 23 07:12 ESE 15 8 Light Rain FEW009 BKN065 OVC110 68 65     90%     29.77   0    
Jun 23 07:05 ESE 15 8 Light Rain FEW012 BKN065 OVC100 68 65     90%     29.75   0    
Jun 23 06:52 ESE 15 5 Thunderstorms and Rain and Fog/Mist BKN039 BKN060 OVC110 68 65     90%     29.76 29.73 0   1
Jun 23 06:50 ESE 15 4 Thunderstorms and Rain and Fog/Mist BKN039 BKN060 OVC110 68 64     88%     29.76   0    
Jun 23 06:20 ESE 13 9 Light Rain FEW009 SCT040 OVC050 67 65     93%     29.77   0    
Jun 23 06:11 E 14 4 Rain and Fog/Mist FEW013 BKN048 OVC065 67 65     93%     29.77   0    
Jun 23 05:52 E 11 10 Cloudy BKN047 OVC060 68 65     90%     29.78 29.76 0    
Jun 23 05:26 E 15 10 Clear   68 65     90%     29.79   0    
Jun 23 05:03 E 16 10 Clear   68 65     90%     29.79   0    
Jun 23 04:52 E 16 10 Clear   68 65     90%     29.8 29.78 0    
Jun 23 04:50 E 15 10 Clear   68 64     88%     29.8   0    
Jun 23 04:33 E 15 6 Thunderstorms and Heavy Rain and Fog/Mist FEW010 BKN042 OVC075 68 65     90%     29.81   0    
Jun 23 03:52 E 16 10 Mostly Cloudy FEW009 BKN035 69 66     90%     29.82 29.79   0  
Jun 23 02:52 E 13 10 Cloudy FEW007 BKN035 OVC110 68 67     96%     29.84 29.82 0    
Jun 23 02:47 ENE 16 10 Light Rain FEW007 BKN044 OVC110 70 66     88%     29.85   0    
Jun 23 02:28 E 10 8 Light Rain FEW006 BKN034 OVC049 69 67     93%     29.88   0    
Jun 23 01:52 ENE 15 10 Thunderstorms and Rain OVC034 69 65     87%     29.87 29.85 0    
Jun 23 01:44 ENE 18 2 Light Rain OVC032 70 65     84%     29.87   0    
Jun 23 00:52 N 9 10 Cloudy BKN036 BKN043 OVC055 72 67     84%   73 29.91 29.89     0
Jun 22 23:52 NNE 7 10 Mostly Cloudy BKN065 74 67     79%   75 29.9 29.88      
Jun 22 22:52 S 10 10 Mostly Clear FEW120 76 66     71%   77 29.87 29.84      
May 15 13:52 SW 9 10 Mostly Clear FEW033 81 67     62%   83 29.96 29.94      
May 15 12:52 SW 9 10 Clear CLR 79 66     65%   80 29.98 29.96      
May 15 03:24 E 10 10 Light Rain OVC110 65 62     90%     29.96   0    
May 15 02:14 ENE 17 7 Thunderstorms and Rain BKN095 OVC110 65 63     93%     29.96   0    
May 14 23:52 N 22   Thunderstorms and Heavy Rain   64 62     93%     30.01 29.99 1    
May 14 21:52 ESE 10 10 Partly Cloudy SCT055 81 66     61%   83 29.83        
May 14 10:52 SSW 16 10 Clear CLR 85 69     59%   89 29.92 29.89      
Notice The following observation data may not be complete
May 14 06:52   9 Clear CLR          %              
May 14 03:52 SSE 7 10 Clear CLR 70 65     84%     29.92 29.9      
May 13 10:52 S 17 10 Clear CLR 82 69     65%   85 29.99 29.96      
May 11 21:52 S 15 10 Clear CLR 77 63     62%   77 29.81 29.79      
Jun 12 05:52 SSE 9 10 Clear CLR 69 65     87%     29.9 29.87      
Jun 11 21:52 SSE 9 10 Clear CLR 77 67     71%   78 29.86 29.84      
Jun 08 22:52 ESE 3 10 Clear CLR 63 57     81%     29.93 29.92      
Jun 06 09:52 NE 8 10 Clear CLR 78 66     67%   79 29.95 29.93      
Notice The following observation data may not be complete
Jun 05 20:52 Calm 10 Clear CLR   70      %     29.83 29.81